Starlink 4032

operational
NORAD ID: 52688 Int'l Des: 2022-053 Owner: SPXS Country: US Constellation: starlink
LEOCIRCULAR

About Starlink 4032

Description loading...

Live Position

Loading 3D Globe...

Upcoming Passes

Altitude History

Altitude vs Time

uPlot chart will show altitude changes over time

Two-Line Element Set

1 52688U 22053AJ 25352.64369487 .00003865 00000-0 26060-3 0 9994
2 52688 53.2172 147.8350 0001368 97.0981 263.0167 15.08870679198881
Epoch: Dec 18, 2025 • Age: 39 hours

Current Status

Altitude 539.3 km
Velocity 7.60 km/s
Sub-Earth Point 14.50°N, 125.65°E
Launch Date May 18, 2022
Age 3.5 years
Type internet

Technical Details

Classification Payload
Mass 297.00 kg
Dry Mass 275.00 kg
Total Mass 297.00 kg
Length 0.20 m
Diameter 2.80 m
Span 9.00 m
Shape Box + pan
Manufacturer SPXS
Bus Type Starlink
Phase Status In Orbit
Owner/State SPXS/US

Large Constellations

Loading constellations...